Clinton Municipal Airport
Sunday 1:56 PM
Temperature70° (70°/48°)
Dew Point43°
Relative Humidity38
%
Visibility10
mi
Pressure1026.4
mb
Wind DirectionVariable
Wind Speed5
mph
Precipitation Today0.00"

Last 30 Observations

Time PresWx Temp DP Feels RH% Vsby Pressure Ceiling Direction Speed 1h Precip
11:56 AM 66° 49° 54
%
10
mi
1027.4
mb
Variable 6
mph
0.00"
10:56 AM 63° 49° 60
%
10
mi
1028.1
mb
SSE
160°
5
mph
0.00"
8:56 AM 58° 48° 70
%
10
mi
1028.5
mb
E
100°
10
mph
0.00"
7:56 AM 54° 47° 77
%
10
mi
1028.1
mb
E
100°
9
mph
0.00"
5:56 AM 49° 47° 45°93
%
10
mi
1026.8
mb
E
80°
10
mph
0.00"
4:56 AM 48° 46° 44°93
%
10
mi
1026.1
mb
ENE
70°
9
mph
0.00"
2:56 AM 49° 46° 45°90
%
10
mi
1025.4
mb
ENE
70°
8
mph
0.00"
1:56 AM 51° 47° 86
%
10
mi
1024.7
mb
NNE
20°
7
mph
0.00"
11:56 PM 55° 49° 80
%
10
mi
1024.4
mb
N
360°
9
mph
0.00"
10:56 PM 57° 49° 74
%
10
mi
1024.1
mb
N
350°
9
mph
0.00"
9:56 PM 58° 48° 70
%
10
mi
N
350°
7
mph
0.00"
8:56 PM 60° 49° 67
%
10
mi
1023.4
mb
N
350°
6
mph
0.00"
7:56 PM 66° 47° 50
%
10
mi
1023.0
mb
NNW
340°
7
mph
0.00"
5:56 PM 70° 45° 41
%
10
mi
1022.7
mb
N
350°
14
mph
0.00"
4:56 PM 72° 44° 37
%
10
mi
1022.7
mb
NW
320°
13
mph
0.00"
2:56 PM 70° 48° 46
%
10
mi
1023.0
mb
NNW
330°
10
mph
0.00"
1:56 PM 68° 49° 50
%
10
mi
1023.0
mb
NNW
330°
14
mph
0.00"
11:56 AM 68° 50° 53
%
10
mi
1023.7
mb
5,500
ft
NNW
340°
11
mph
0.00"
10:56 AM 68° 50° 53
%
10
mi
1023.7
mb
NNW
330°
10
mph
0.00"
8:56 AM 62° 53° 72
%
10
mi
1024.1
mb
NNW
340°
6
mph
0.00"
7:56 AM 58° 52° 81
%
10
mi
1023.4
mb
N
350°
7
mph
0.00"
5:56 AM 48° 47° 47°96
%
10
mi
1023.0
mb
WNW
290°
3
mph
0.00"
4:56 AM 48° 47° 46°96
%
10
mi
1022.7
mb
WNW
290°
5
mph
0.00"
2:56 AM 50° 49° 96
%
10
mi
1021.7
mb
WNW
300°
7
mph
0.00"
1:56 AM 51° 49° 92
%
10
mi
1021.3
mb
N
350°
5
mph
0.00"
12:56 AM 53° 50° 89
%
10
mi
N
350°
9
mph
0.00"
11:56 PM 54° 49° 83
%
10
mi
1021.3
mb
N
350°
6
mph
0.00"
10:56 PM 57° 49° 74
%
10
mi
1021.0
mb
NW
310°
5
mph
0.00"
8:56 PM 58° 51° 78
%
10
mi
1020.3
mb
NNW
330°
5
mph
0.00"
7:56 PM 62° 51° 67
%
10
mi
1020.0
mb
NNW
330°
5
mph
0.00"